sat.trackr.live / text

‹ back to catalog

STARLINK-4679

NORAD 53782 · 2022-111K

PAYLOAD ACTIVE UNKNOWN

§ Identity

Operator
Country
US
Launch date
2022-09-11
Launch site
AFETR
Launch vehicle
Mass (kg)
RCS (m²)

Purposes: comms

External: N2YO · Heavens-Above · Gunter

§ Orbital elements

Epoch: 2026-07-01T05:29:15.127584Z

Period
87.91 min
Inclination
53.2000°
Eccentricity
0.0009210
Mean motion
16.38016233 rev/d
Perigee alt
165.1 km
Apogee alt
177.1 km
Semi-major
6,549.2 km
B*
5.2677e-4
RAAN
82.4175°
Arg perigee
248.6106°
Mean anomaly
111.3959°
Rev number
21,141

§ Raw data

STARLINK-46791 53782U 22111K   26182.22864731  .05804301  12250-4  52677-3 0  99992 53782  53.2000  82.4175 0009210 248.6106 111.3959 16.38016233211414

JSON: /api/v1/satellites/53782 · /tle

For live sub-satellite position, see the globe view (requires WebGL).

§ Visibility from observer

Set your observer location to see the next 7 days of passes ≥ 10°. The values pass through the URL so the page stays shareable.

No JS? Fill the form by hand. The geolocation button needs JavaScript.